Home   Weather   Carson City   Past weeks

Flag for USA Past Weather in Carson City, Nevada, USA — Yesterday and Last 2 Weeks

Now
20 °F

Partly cloudy.


Feels Like: 20 °F
Forecast: 13 / 31 °F
Wind: No wind

Location: Reno Tahoe International Airport

Current Time: Jan 24, 2017 at 3:28:25 am

Latest Report: Jan 24, 2017 at 2:55 am


Visibility: 10 mi

Pressure: 29.90 "Hg (24.90 "Hg at 1425m altitude)

Humidity: 89%

Dew Point: 17 °F

Location of Carson CityLocation

Past Weather in Carson City — Graph

°F

Carson City Temperature Yesterday

Maximum temperature yesterday: 36 °F (at 2:55 pm)
Minimum temperature yesterday: 20 °F (at 10:55 pm)
Average temperature yesterday: 28 °F

High & Low Weather Summary for the Past Weeks

 TemperatureHumidityPressure
High46 °F (Jan 9, 1:55 am)100% (Jan 10, 7:55 pm)30.40 "Hg (Jan 10, 7:55 pm)
Low20 °F (Jan 23, 10:55 pm)34% (Jan 9, 1:55 pm)29.13 "Hg (Jan 20, 2:55 pm)
Average34 °F77%29.87 "Hg
* Reported Jan 9 1:55 am — Jan 24 1:55 am, Carson City, Weather by CustomWeather, © 2017

Note: Actual official high and low records may vary slightly from our data, if they occured in-between our weather recording intervals... More about our weather records

Advertising

Carson City Weather History for the Previous 24 Hours

Scroll right to see more
 ConditionsComfort  
Time TempWeatherWind HumidityBarometerVisibility
1:55 am
Tue, Jan 24
22 °FPassing clouds.No wind82%29.88 "Hg10 mi
12:55 am21 °FPassing clouds.No wind88%29.88 "Hg10 mi
11:55 pm
Mon, Jan 23
20 °FPassing clouds.No wind89%29.88 "Hg10 mi
10:55 pm20 °FPassing clouds.6 mph85%29.88 "Hg10 mi
9:55 pm21 °FPassing clouds.5 mph85%29.86 "Hg10 mi
8:55 pm21 °FPassing clouds.No wind88%29.85 "Hg10 mi
7:55 pm26 °FPassing clouds.No wind81%29.81 "Hg10 mi
6:55 pm28 °FPassing clouds.6 mph72%29.79 "Hg10 mi
5:55 pm24 °FPartly cloudy.7 mph81%29.80 "Hg10 mi
4:55 pm33 °FBroken clouds.6 mph66%29.75 "Hg10 mi
3:55 pm35 °FPartly sunny.6 mph64%29.73 "Hg10 mi
2:55 pm36 °FPartly sunny.No wind57%29.72 "Hg10 mi
1:55 pm35 °FBroken clouds.3 mph59%29.71 "Hg10 mi
12:55 pm32 °FBroken clouds.5 mph66%29.72 "Hg10 mi
11:55 am34 °FPartly sunny.No wind64%29.71 "Hg10 mi
10:55 am30 °FBroken clouds.3 mph75%29.74 "Hg10 mi
9:55 am29 °FPartly sunny.No wind82%29.75 "Hg10 mi
8:55 am28 °FPartly sunny.No wind85%29.72 "Hg10 mi
7:55 am28 °FBroken clouds.No wind81%29.69 "Hg10 mi
6:55 am27 °FPartly cloudy.No wind89%29.67 "Hg10 mi
5:55 am25 °FPartly cloudy.No wind92%29.66 "Hg10 mi
4:55 am28 °FPartly cloudy.6 mph81%29.63 "Hg10 mi
3:55 am29 °FMostly cloudy.7 mph85%29.61 "Hg10 mi
Weather by CustomWeather, © 2017

See weather overviewHow to use our weather pages